Terminal Aerodrome Forecast
Issued by NWS

Home | Current Version | Previous Version | Text Only | Print | Product List | Glossary On
Versions: 1 2 3 4 5 6 7 8 9 10 11 12 13 14 15 16 17 18 19 20 21 22 23 24 25 26 27 28 29 30 31 32
000
FTUS43 KDVN 281946 AAB
TAFCID
TAF AMD
KCID 281946Z 2820/2918 16009KT P6SM VCTS FEW020 SCT030CB
     FM282200 23009KT P6SM SCT020 BKN035
     FM290900 26009KT 5SM BR SCT020 SCT035=

USA.gov is the U.S. government's official web portal to all federal, state and local government web resources and services.